Voltar ao catálogo

USA 281

AtivoMilitarLEO
NORAD 43145·PAYLOAD·🇺🇸 United States

Lançado Jan 12, 2018 de Vandenberg Space Force Base

Loading…

Próximas Passagens (próximas 24 horas)

TLE

ObsoletoSource: Mike McCants

Época: Aug 28, 2026, 20:28 UTC

1 43145U 18005A   26240.85326383 0.00000000  00000-0  00000-0 0    06
2 43145 106.0108  99.6514 0008414   8.5776 351.4224 13.48056978    01

Acompanhe USA 281 em tempo real com AllMySat

Download on the App Store